Temp
9 9 9 10 9 10 10 11 11 13 14 16 17 18 18 18 19 20 19 25 27 27 27 25 24 25 26 25 26 26 22 22 24 26 27 28 30 32 32 33 32 31 27 28 29
9 9 9 9 9 9 10 10 10 10 11 13 14 16 17 17 17 17 25 27 27 26 24 25 25 25 23 25 25 24 21 24 26 27 27 28 29 30 32 30 30 28 27 27 27
9 9 8 9 9 9 9 9 10 10 10 11 12 14 16 17 16 20 27 27 28 24 25 26 26 25 23 25 25 24 24 27 27 28 29 30 30 31 31 29 30 28 26 24 25
7 8 8 8 8 9 9 9 9 9 9 10 11 11 14 15 20 26 25 25 27 24 23 25 24 24 23 23 26 24 26 27 28 29 29 29 31 30 30 29 31 27 26 25 24
7 7 7 7 8 8 9 9 9 9 10 10 10 10 13 13 17 26 25 24 26 24 23 24 23 23 23 24 25 25 26 28 29 29 29 30 29 30 30 29 29 28 26 26 24
7 7 7 7 7 7 8 8 9 9 9 10 10 9 10 11 21 22 24 24 24 24 23 24 24 25 24 24 24 27 27 28 29 29 29 29 30 29 30 30 29 27 26 26 24
7 7 8 8 8 7 7 8 8 9 9 9 9 9 9 12 19 22 22 22 24 24 24 25 26 25 24 24 25 26 25 26 28 29 29 30 28 29 29 29 28 27 26 25 25
7 7 7 7 8 8 8 8 8 8 8 8 9 9 10 15 20 18 23 21 23 23 24 26 26 23 23 23 25 24 24 24 27 28 29 28 27 29 28 28 28 27 27 26 24
8 8 8 7 7 7 7 8 9 9 8 8 9 9 10 17 16 20 21 20 24 24 24 25 24 23 24 23 21 22 23 24 25 27 28 27 28 28 28 28 27 27 26 26 26
7 7 7 7 7 7 7 8 11 8 9 9 10 10 13 18 20 21 21 20 22 24 23 24 22 22 21 20 21 22 22 24 25 28 27 26 26 28 30 29 28 27 25 25 24
6 7 7 7 7 7 7 7 10 10 9 11 12 14 21 20 22 24 22 20 21 22 22 23 21 21 22 23 24 24 24 24 26 28 28 27 28 28 28 27 27 26 25 25 23
6 6 6 7 7 7 7 6 9 12 10 13 14 14 18 20 20 22 23 21 20 20 22 22 22 24 25 24 24 24 23 24 26 27 27 27 28 29 29 27 27 27 25 23 19
7 7 7 7 7 7 8 8 11 10 10 13 15 16 16 18 18 20 23 22 21 20 22 22 24 25 24 24 24 23 24 24 25 26 27 26 26 27 28 28 28 28 26 21 21
7 7 7 7 8 7 8 12 11 11 9 13 16 18 18 18 18 21 23 23 22 21 22 22 25 25 24 24 25 24 26 26 26 25 23 26 24 25 27 28 28 27 24 21 21
7 6 7 7 6 6 11 10 11 12 11 19 19 20 20 18 22 21 23 23 22 23 22 22 24 24 24 25 26 25 26 26 26 25 24 26 23 23 26 28 28 27 23 21 21
6 6 7 6 6 8 9 9 10 11 11 17 20 19 19 19 21 24 22 24 24 24 24 23 25 25 25 26 26 27 26 25 25 24 22 25 24 26 25 27 28 27 23 20 19
7 7 6 6 7 8 9 8 10 10 16 18 17 17 19 19 19 22 21 21 21 21 22 24 24 25 26 25 26 25 23 21 20 21 22 25 24 27 26 26 27 25 21 20 20
7 7 7 7 8 8 8 8 10 14 14 17 16 17 18 17 18 21 21 21 22 23 22 22 22 25 26 25 25 25 24 21 21 20 23 25 24 27 27 27 26 24 22 21 20
7 7 7 8 8 7 8 8 10 13 15 14 15 15 15 15 15 17 20 21 23 22 21 22 23 26 27 27 26 24 23 25 23 24 22 23 26 27 26 25 24 23 22 21 19
6 6 7 9 8 8 6 9 10 12 13 14 12 14 13 14 14 15 17 22 22 24 23 22 21 25 26 27 27 26 26 24 20 22 22 23 26 24 26 24 24 22 21 21 19
6 5 8 9 8 7 6 7 10 13 13 12 12 12 13 14 14 13 15 19 19 23 24 23 21 23 26 25 25 23 25 25 24 22 21 22 24 23 25 24 24 23 22 20 19
5 5 8 9 7 7 7 9 10 12 12 12 13 13 13 13 13 13 14 16 17 18 19 24 20 21 23 26 27 26 24 26 24 23 23 22 24 25 23 24 24 23 22 21 20
5 4 8 8 7 7 7 9 11 11 12 12 12 13 14 13 12 13 14 17 16 16 17 18 22 19 21 24 25 26 26 26 23 21 22 25 24 26 26 25 24 23 21 21 20
4 5 6 6 6 6 8 9 9 12 12 13 12 13 13 13 14 13 13 15 16 16 16 15 18 22 22 25 25 25 27 26 26 22 22 27 25 26 23 23 22 23 22 22 21
4 5 7 6 6 6 7 8 9 9 11 12 11 12 12 12 13 14 14 15 15 16 14 13 15 23 24 25 25 26 27 27 27 25 26 25 25 25 24 24 23 23 22 22 22
2 6 6 5 6 7 7 8 9 8 9 10 10 11 12 10 11 13 14 13 12 14 13 12 13 20 23 25 26 25 26 28 28 26 25 25 25 25 26 26 25 24 24 23 23
6 7 5 6 5 5 6 9 8 7 9 10 12 9 9 12 14 14 14 13 12 12 12 11 13 14 22 25 25 24 26 26 28 28 25 25 26 24 25 25 25 24 25 25 24
Height
821 818 814 811 810 809 806 804 801 799 797 794 795 792 790 787 785 784 777 767 769 771 774 773 777 778 783 782 781 782 813 817 804 793 777 758 762 744 737 740 737 735 738 732 740
819 817 815 812 810 807 804 803 800 799 797 794 793 790 789 787 784 776 761 761 763 767 769 770 774 776 784 780 780 790 810 795 772 769 772 759 757 751 747 747 744 740 735 733 739
815 814 812 810 806 805 803 800 799 796 794 792 790 788 786 785 781 760 755 754 755 760 765 769 772 775 784 778 777 778 790 763 766 759 756 755 751 743 746 752 741 743 738 738 742
813 809 806 804 803 802 799 798 796 794 792 791 789 787 783 785 789 755 754 752 752 756 763 766 771 780 783 785 761 785 767 764 758 751 753 755 743 745 741 739 727 728 730 735 738
813 810 806 802 799 797 795 794 792 790 790 790 786 782 780 781 764 751 751 751 755 753 756 761 770 774 781 769 768 773 764 754 750 749 747 743 746 741 734 724 724 723 728 729 732
811 808 805 803 800 797 795 794 793 791 788 784 781 780 781 777 751 749 750 753 754 753 754 757 757 753 767 767 771 751 749 750 746 745 743 746 738 734 725 718 724 724 725 725 726
808 804 800 797 794 791 788 786 783 782 780 779 779 778 773 750 744 745 746 745 747 749 749 748 751 757 759 769 757 755 762 751 746 743 742 735 743 737 721 717 722 723 720 721 720
805 802 797 792 787 783 778 774 771 770 770 772 774 773 756 740 737 737 739 736 740 743 745 746 748 755 761 758 758 763 761 770 747 742 732 743 752 726 715 720 719 717 716 717 715
802 798 794 790 786 780 774 768 761 761 763 768 771 769 751 732 727 718 725 730 730 738 740 743 748 755 757 771 780 770 777 766 753 736 736 741 743 721 710 716 715 712 711 710 708
800 795 791 787 783 778 772 764 750 752 756 764 765 768 739 718 711 709 713 723 729 730 739 742 749 757 765 773 780 772 772 759 751 732 735 740 739 721 706 706 708 706 707 706 707
798 793 788 784 780 776 770 762 756 756 756 741 732 721 704 705 709 706 708 717 727 730 738 736 756 754 749 742 745 751 757 758 736 722 736 736 730 717 706 706 706 705 704 702 705
793 789 785 781 777 773 771 771 765 766 750 733 727 725 712 711 714 701 703 714 722 730 730 741 733 729 729 739 746 750 757 751 731 722 735 733 727 708 703 706 699 697 700 703 709
790 785 780 777 774 770 767 765 761 761 754 719 710 705 712 713 712 697 702 703 712 727 721 722 714 719 730 736 745 745 750 743 742 728 728 734 737 721 700 696 693 690 691 699 698
787 782 778 774 772 768 763 757 758 757 758 711 694 682 694 706 697 688 688 695 703 715 718 718 712 715 724 729 730 742 723 731 734 743 760 726 762 733 709 700 694 690 690 694 696
783 779 776 774 770 767 759 755 751 751 757 685 680 670 671 676 667 671 672 687 694 696 707 707 707 717 718 716 715 720 720 726 728 735 744 731 755 736 709 704 696 689 691 696 696
778 775 772 770 767 759 758 754 751 756 744 692 679 684 683 677 665 655 666 671 680 693 689 696 687 696 701 703 705 704 721 726 728 737 759 733 745 722 718 701 691 685 690 695 702
773 769 767 766 761 759 759 754 753 747 706 695 694 689 677 674 679 671 676 682 688 706 700 695 694 689 687 706 702 709 732 763 769 759 758 725 737 713 697 688 685 688 694 697 701
767 763 758 757 757 759 760 761 751 720 719 699 703 694 685 688 683 672 674 675 672 671 687 699 707 682 675 686 703 706 718 744 766 765 748 721 735 708 680 673 673 679 686 694 702
762 757 754 750 753 758 761 754 740 727 721 718 712 706 701 702 704 683 666 665 652 658 681 690 688 659 661 671 684 700 713 703 728 724 741 728 706 687 680 682 681 689 691 697 700
762 757 753 749 752 757 762 748 741 734 731 722 724 719 719 710 709 696 682 656 660 654 655 670 691 661 659 666 669 675 680 719 735 747 754 733 713 716 695 693 688 692 695 697 702
762 761 751 749 752 757 763 757 742 734 731 732 729 729 724 713 710 712 696 672 664 657 658 666 679 676 665 665 667 686 689 695 702 720 740 745 720 692 686 685 688 686 688 693 697
765 766 751 751 757 758 758 748 742 733 732 731 724 722 720 716 713 711 697 688 688 680 671 650 681 687 666 647 645 660 677 679 699 714 709 718 711 669 672 673 675 682 685 689 691
767 763 752 752 757 757 755 748 740 734 730 725 723 720 716 715 719 707 698 681 686 689 685 674 665 694 680 662 651 657 654 659 680 695 705 709 704 662 667 668 670 678 684 687 692
769 768 758 756 757 757 750 743 740 728 724 720 719 718 714 710 702 703 702 691 689 691 687 683 668 656 662 644 640 655 649 656 666 696 697 676 684 671 676 678 677 677 679 683 689
772 769 760 761 756 754 750 743 739 735 722 719 717 715 712 709 702 694 695 692 693 684 687 693 674 643 637 636 635 637 639 645 653 658 669 674 674 669 668 670 669 669 677 683 688
779 770 764 763 755 751 749 742 738 736 728 721 719 713 710 715 709 698 693 698 703 686 693 692 685 647 645 633 634 644 639 630 636 648 655 658 668 649 648 651 662 665 670 677 680
771 769 769 759 757 760 752 740 741 739 726 717 713 718 719 703 692 691 687 693 695 696 698 700 688 676 644 630 637 654 633 633 628 626 645 665 650 645 651 655 655 662 663 667 671
Wind_Speed
16 17 17 18 19 19 19 19 19 18 17 16 17 16 16 21 23 23 15 19 15 18 13 4 12 14 9 5 6 4 2 7 7 6 12 8 4 6 4 3 3 2 9 7 30
16 17 18 18 18 19 19 18 18 18 17 17 17 16 15 17 20 19 34 32 31 23 22 13 6 8 3 4 5 6 5 12 12 10 11 14 5 5 3 7 2 3 3 18 30
19 18 16 17 18 19 20 19 19 18 16 17 17 17 14 13 6 10 2 5 9 28 28 20 10 6 7 4 7 6 10 23 16 16 16 19 14 5 5 7 5 9 8 9 15
19 20 19 19 18 19 20 20 19 18 18 17 17 17 11 0 7 3 6 15 9 23 22 13 5 6 5 9 19 6 13 19 22 21 16 16 18 8 7 9 7 12 16 13 13
18 18 19 20 20 19 20 21 22 22 20 18 16 16 5 4 10 20 14 20 8 17 22 12 8 8 12 12 10 11 21 21 21 20 19 17 17 11 7 10 8 11 14 18 16
19 19 19 19 19 20 20 20 21 22 20 18 16 13 3 12 23 31 36 24 22 11 16 16 10 14 2 10 17 14 15 19 20 21 17 14 18 5 10 8 9 12 16 17 16
21 21 21 22 22 22 23 24 25 24 22 19 15 9 10 17 15 15 14 25 19 28 12 24 25 2 5 14 15 10 12 12 17 17 19 14 17 7 11 7 12 12 14 14 17
23 23 23 23 24 25 26 29 29 28 23 18 13 8 10 15 19 30 39 40 30 22 21 21 21 6 6 5 8 6 5 10 10 14 17 7 21 15 12 9 12 11 9 12 15
23 24 25 24 23 24 27 32 35 33 26 17 10 6 11 8 14 38 39 20 35 22 25 14 8 7 1 13 9 4 14 18 19 12 13 8 18 12 10 9 12 10 10 11 14
24 25 24 25 25 26 29 34 37 19 11 9 11 2 8 9 11 13 24 33 10 3 7 10 7 8 6 5 12 11 8 7 18 17 8 11 13 13 21 17 14 11 9 9 8
23 23 25 25 24 24 29 16 4 3 5 10 13 9 2 25 8 9 12 17 10 4 14 10 9 16 23 25 18 11 6 11 18 17 6 10 15 16 11 6 8 10 11 11 6
27 25 24 22 25 23 24 2 5 4 11 16 24 25 32 11 6 10 19 8 11 18 11 7 27 22 20 12 13 13 13 19 20 18 5 14 22 20 8 7 10 13 9 6 7
27 27 27 24 22 18 6 12 16 22 7 11 19 19 20 15 12 22 8 7 7 12 22 25 12 21 20 16 15 16 18 20 19 14 9 8 11 13 10 8 6 7 8 10 18
27 26 24 24 15 9 10 7 27 13 5 7 9 9 18 9 12 27 15 7 8 22 22 17 19 19 19 19 16 18 21 19 20 11 8 7 6 6 6 7 5 7 6 10 14
25 24 22 15 15 7 14 28 31 1 5 4 4 7 9 25 12 15 31 16 20 14 11 11 21 24 22 26 24 21 14 15 14 13 3 20 2 8 4 5 9 6 8 6 12
24 23 21 14 13 22 22 29 10 2 8 6 8 13 1 19 15 2 16 8 14 13 15 19 9 23 27 17 21 23 7 8 9 7 8 15 5 14 5 7 4 0 7 11 11
25 23 18 12 6 9 17 9 2 6 8 2 14 20 21 9 16 9 8 21 12 14 17 14 21 14 13 22 17 13 9 5 4 6 8 8 5 13 8 8 8 9 8 10 12
27 21 20 20 20 16 8 1 8 6 14 20 19 18 6 20 10 14 9 18 24 15 12 14 11 25 22 20 20 24 14 6 7 4 4 7 7 11 8 8 10 11 13 12 12
22 14 9 17 11 11 2 5 3 6 9 15 18 9 10 21 12 9 24 15 25 23 10 16 17 6 24 18 20 10 17 13 3 2 2 5 5 6 5 6 12 10 13 13 12
15 8 9 11 8 5 2 7 4 12 12 16 8 7 17 16 11 15 5 7 17 23 8 4 5 17 14 17 22 21 5 8 0 8 7 4 3 6 5 8 10 11 11 11 9
7 3 5 8 9 1 2 4 5 13 8 8 11 12 15 16 12 13 8 11 21 8 19 11 4 5 16 18 27 7 19 8 7 7 8 5 9 7 11 12 15 15 14 15 14
5 3 1 2 2 0 1 4 4 10 13 11 8 7 8 13 13 7 10 10 19 20 9 23 5 9 17 4 19 18 9 21 11 7 3 6 9 6 9 16 17 14 15 12 14
4 2 5 8 2 1 3 9 11 14 14 4 6 9 10 11 6 7 10 11 17 19 11 6 16 4 8 2 5 20 19 13 7 4 8 9 8 3 2 15 12 16 12 13 13
3 3 3 3 2 3 5 7 3 8 11 9 9 8 11 11 10 7 13 10 21 19 13 7 5 28 17 12 8 7 19 14 14 7 6 14 5 4 8 10 8 10 14 15 16
1 3 2 3 3 7 4 6 8 8 8 8 5 8 9 8 13 16 17 19 15 6 10 7 8 19 29 17 4 6 18 20 17 14 15 8 11 9 11 14 17 16 13 14 14
0 3 4 5 6 5 5 4 11 8 3 7 5 12 10 7 15 15 12 6 7 6 11 6 6 6 20 29 26 16 9 24 21 10 8 13 7 9 15 15 13 17 18 18 18
4 4 1 6 4 2 3 8 6 10 10 4 10 7 9 14 9 9 7 6 8 14 8 4 5 6 20 20 21 19 23 10 15 19 12 8 8 8 6 11 19 17 20 20 19
Wind_Direction
326 327 331 335 336 335 333 333 334 328 319 313 306 307 312 314 309 303 260 246 258 260 248 174 202 212 223 209 202 121 132 261 246 231 262 295 294 283 275 273 238 227 157 205 170
322 320 319 320 320 324 330 329 327 325 323 315 310 305 307 316 317 278 267 269 261 246 218 203 200 185 232 226 211 168 157 239 236 258 270 278 255 254 298 313 359 55 30 137 151
315 315 313 310 310 311 315 319 321 322 323 325 318 311 313 326 333 255 69 358 286 230 230 221 226 156 220 151 221 203 214 241 265 259 261 273 285 261 288 311 205 191 166 139 152
323 320 316 312 308 304 307 309 309 309 311 318 322 324 317 188 234 230 160 21 334 220 213 216 206 207 219 209 239 266 249 254 259 265 267 265 273 253 245 247 247 184 166 163 174
319 322 319 314 312 309 304 302 304 302 302 306 316 329 348 216 231 229 255 311 300 186 201 201 177 205 219 234 260 246 250 254 257 264 267 271 259 240 247 260 207 179 167 179 183
332 315 312 314 311 305 300 297 294 292 295 303 311 323 206 239 251 253 259 259 263 189 208 197 215 213 318 226 237 247 243 255 264 266 271 270 269 230 259 260 198 165 190 189 188
330 331 325 312 310 312 308 302 297 294 293 293 299 291 245 239 253 260 237 248 256 231 225 216 220 188 195 254 271 256 272 278 268 267 270 287 275 236 244 220 215 191 202 197 204
328 324 324 324 319 312 311 306 301 296 291 288 286 269 254 262 258 261 248 264 254 247 238 236 224 219 207 287 300 298 289 265 261 269 267 207 270 271 255 217 224 225 223 209 213
326 326 321 318 318 317 308 302 297 293 283 277 268 205 270 269 227 239 235 220 241 238 243 243 197 193 229 227 268 225 255 263 271 254 266 221 269 267 263 219 223 227 236 213 223
323 320 318 317 316 320 318 306 307 284 270 219 230 264 258 233 232 234 230 219 219 190 210 210 191 193 206 169 221 226 240 245 254 252 251 268 270 275 274 234 221 228 240 223 209
324 322 318 315 316 318 325 338 6 89 256 207 197 211 290 215 287 229 172 174 183 217 206 189 199 212 213 219 228 243 250 252 257 262 250 254 264 260 267 248 231 241 247 234 183
326 324 322 313 315 313 309 245 229 297 292 255 257 236 261 297 303 276 160 149 181 199 176 201 220 213 225 221 221 225 247 255 270 271 268 279 273 255 245 229 223 225 249 201 151
325 322 321 321 315 305 280 255 302 308 264 271 232 231 223 240 236 260 207 189 168 193 201 207 210 209 209 218 214 224 227 245 251 275 268 272 280 271 274 237 275 255 240 173 166
322 320 318 321 309 314 277 287 326 318 286 269 210 237 193 216 255 218 214 202 208 198 208 232 215 206 212 220 213 233 224 237 248 258 258 159 268 290 247 239 233 270 193 167 170
321 317 316 306 293 296 288 328 331 143 300 225 217 184 177 188 128 206 203 195 219 174 178 206 188 215 222 216 215 236 222 237 252 246 237 276 215 259 285 280 282 232 178 174 164
322 317 313 298 262 265 311 319 320 133 247 297 59 358 149 213 231 90 179 176 195 227 215 210 194 209 222 226 215 236 250 250 261 241 242 249 179 278 225 221 246 126 174 150 145
322 314 298 258 251 275 309 327 213 208 318 49 353 341 324 184 230 257 189 187 185 194 215 210 217 225 198 212 224 208 194 243 266 210 225 226 225 252 252 236 202 169 157 146 147
321 307 288 263 269 276 309 67 222 247 252 307 350 338 37 18 337 222 252 198 209 195 182 205 217 209 209 203 206 221 199 194 198 200 199 224 212 247 221 258 184 156 148 146 151
330 318 273 285 242 244 245 209 210 354 322 337 350 356 353 353 342 332 220 220 201 199 169 197 226 230 203 207 187 205 218 203 166 223 85 215 268 355 118 104 124 140 140 158 157
332 310 289 347 195 173 114 234 297 327 315 332 349 354 331 336 324 355 301 279 230 212 215 223 199 231 216 197 223 218 153 180 202 204 224 275 214 222 166 173 152 149 165 161 158
323 353 325 340 167 110 193 230 259 277 328 331 313 316 311 321 309 330 280 27 23 245 212 248 71 313 207 203 203 180 218 223 177 180 192 208 247 210 194 177 169 177 172 168 166
334 328 29 6 97 285 285 240 311 268 310 294 286 279 297 336 302 295 261 315 358 347 271 203 148 242 243 292 206 210 184 210 221 217 207 172 246 252 213 167 169 173 173 168 166
318 279 2 150 203 123 310 279 260 279 278 256 261 280 287 295 279 302 282 341 333 348 352 319 215 263 324 184 234 202 207 203 182 119 195 184 239 230 65 171 172 154 162 166 160
339 328 323 56 146 175 249 267 267 293 296 269 288 287 280 292 257 254 275 306 331 322 346 318 249 209 216 221 178 192 206 190 186 189 171 206 170 158 159 170 153 166 165 165 168
330 285 334 315 314 304 277 288 295 304 252 274 276 265 254 282 289 253 259 296 327 293 2 2 250 210 220 243 245 206 207 199 198 193 192 189 178 191 177 174 178 174 164 160 170
124 335 343 289 289 306 306 314 317 309 301 297 298 329 321 253 261 282 259 267 285 300 349 346 293 261 217 229 237 250 263 207 208 190 144 162 206 187 186 181 165 175 169 176 179
346 323 254 275 292 8 252 333 291 301 291 273 310 317 295 292 292 289 188 198 235 278 301 290 331 336 219 215 233 240 239 225 202 193 149 168 196 157 176 165 178 178 178 182 184